sat.trackr.live / text

‹ back to catalog

STARLINK-11712 [DTC]

NORAD 64135 · 2025-111N

PAYLOAD ACTIVE UNKNOWN

§ Identity

Operator
Country
US
Launch date
2025-05-24
Launch site
AFETR
Launch vehicle
Mass (kg)
RCS (m²)

Purposes: comms

External: N2YO · Heavens-Above · Gunter

§ Orbital elements

Epoch: 2026-05-24T15:57:31.665312Z

Period
91.67 min
Inclination
43.0044°
Eccentricity
0.0002873
Mean motion
15.70897480 rev/d
Perigee alt
354.4 km
Apogee alt
358.3 km
Semi-major
6,734.5 km
B*
1.3559e-3
RAAN
236.2852°
Arg perigee
267.8754°
Mean anomaly
92.1785°
Rev number
5,858

§ Raw data

STARLINK-11712 [DTC]1 64135U 25111N   26144.66494983  .00177742  00000+0  13559-2 0  99972 64135  43.0044 236.2852 0002873 267.8754  92.1785 15.70897480 58580

JSON: /api/v1/satellites/64135 · /tle

For live sub-satellite position, see the globe view (requires WebGL).

§ Visibility from observer

Set your observer location to see the next 7 days of passes ≥ 10°. The values pass through the URL so the page stays shareable.

No JS? Fill the form by hand. The geolocation button needs JavaScript.